COSMOS 1275 DEB, 12744

Orbit data source: Space-Track

COSMOS 1275 DEB, 12744 is space debris in LEO originally from a launch on Thu, 04 Jun 1981 UTC launched from the Plesetsk Missile And Space Complex (PKMTR). Debris objects in space refer to the collection of defunct objects orbiting the Earth. Examples of debris include non-operational satellites, rocket bodies, and fragments generated from explosions, collisions, or faulty payload assembly.

Loading next visibility...
Identifier
12744, 1981-053CM
Orbit
LEO
Country
Flag of CISCIS
Related business
Manufacturer
Unknown
Mission
Spacecraft
Bus & Motor
Unknown
Mass
Unknown
Launch date (UTC)
1981-06-04 (45 years ago)
Launch vehicle
Unknown
Launch site
Plesetsk Missile And Space Complex (PKMTR)
Object type
Payload
Rocket body
Debris
Shape & HBR
Unknown shape, 0.2 m
Radar Cross Section
Small (<0.1 m²)

Expand to show TLE details & history
Last TLE update: 16 hours ago

TLE from 16 hours ago
0 COSMOS 1275 DEB
1 12744U 81053CM  26118.46820477  .00003510  00000-0  13080-2 0  9994
2 12744  82.9276 141.0890 0016367 263.8163  96.1160 14.31714477283004
Epoch: 2026-04-28T11:14Z
TLE epoch observation values (Epoch: 2026-04-28T11:14:12.892Z)
Latitude
-0.00001°
Longitude
116.0922°
Altitude
790.253 km
Speed
7.458 km/s
True Right ascension
09h 24m 21s
True Declination
0° 00' 00"
Sunlit
Object was in daylight at epoch
Visualization orbit readout
Latitude
Unknown
Longitude
Unknown
Altitude
Unknown
Speed
Unknown
Apparent Right ascension
Unknown
Apparent Declination
Unknown
Sunlit
N/A
Visualization observer readout
Local Sidereal Time
10:24:38
Azimuth
Unknown
Elevation
Unknown
Doppler factor
Unknown
Orbital elements
Apogee altitude
794.798 km
Perigee altitude
771.356 km
Semi-major axis
7,161.214 km
Eccentricity
0.00164
Inclination
82.9276°
RAAN
141.089°
Arg. of periapsis
263.8163°
True anomaly
96.30244°
Mean anomaly
96.116°
Eccentric anomaly
96.20923°
Mean motion
3.58149 °/min
Orbital period
100.52 mins
BSTAR
0.001308
Loading maneuver chart data...
Computing Atmospheric mass density...
Loading historical data...
Loading historical data...
Loading historical data...
Loading historical data...
Loading historical data...
Loading historical data...
Loading historical data...

Documentation

Showing up to 5 results
|